This demonstration page uses our WeatherBlox Daily Observations layout. Learn more.

Left ArrowRight Arrow

41.12389, -100.76542

Hourly Observations for July 4, 2018

Temp ( °F °C ) Dew Point ( °F °C ) Humidity (%) Winds ( mph kmh ) Pressure ( in mb ) Visibility ( mi km ) Precip ( " mm )
12:05 am 00:05 Cloudy with Thunderstorms 78 25.6 61 16.1 56 56 NW 15 24 29.91 1013 10 16 0.00 0.00
12:53 am 00:53 Partly Cloudy with Thunderstorms 68 20 66 18.9 93 93 WNW 9 15 29.95 1014 10 16 0.02 0.51
1:05 am 01:05 Mostly Clear 68 20 66 18.9 93 93 WNW 6 9 29.91 1013 10 16 0.00 0.00
1:17 am 01:17 Mostly Cloudy with Nearby Thunderstorms 69 20.6 66 18.9 90 90 Calm 29.91 1013 10 16 0.00 0.00
1:33 am 01:33 Mostly Cloudy with Thunderstorms 69 20.6 66 18.9 90 90 W 3 6 29.94 1014 10 16 0.01 0.25
1:53 am 01:53 Cloudy with Thunderstorms 69 20.6 66 18.9 90 90 NNW 8 13 29.98 1015 10 16 0.02 0.51
2:25 am 02:25 Mostly Cloudy with Nearby Thunderstorms 68 20 65 18.3 90 90 SE 14 22 29.97 1015 10 16 0.04 1.02
2:53 am 02:53 Mostly Cloudy with Nearby Thunderstorms 67 19.4 65 18.3 93 93 SE 9 15 29.93 1013 10 16 0.06 1.52
3:04 am 03:04 Mostly Cloudy with Thunderstorms 67 19.4 66 18.9 97 97 SE 14 22 29.91 1013 10 16 0.00 0.03
3:22 am 03:22 Partly Cloudy with Nearby Thunderstorms 70 21.1 65 18.3 84 84 SE 16 26 29.88 1012 10 16 0.00 0.03
3:45 am 03:45 Clear 70 21.1 64 17.8 82 82 S 9 15 29.85 1011 10 16 0.00 0.03
3:53 am 03:53 Clear 70 21.1 64 17.8 82 82 S 10 17 29.89 1012 10 16 0.00 0.03
4:53 am 04:53 Clear 70 21.1 66 18.9 87 87 SSE 14 22 29.90 1013 10 16 0.00 0.00
5:53 am 05:53 Clear 67 19.4 65 18.3 93 93 SE 10 17 29.92 1013 10 16 0.00 0.00
6:53 am 06:53 Sunny 69 20.6 66 18.9 90 90 SE 12 19 29.95 1014 10 16 0.00 0.00
7:53 am 07:53 Sunny 71 21.7 68 20 90 90 SE 12 19 29.97 1015 10 16 0.00 0.00
8:53 am 08:53 Sunny 75 23.9 70 21.1 84 84 SE 14 22 29.97 1015 10 16 0.00 0.00
9:53 am 09:53 Sunny 78 25.6 72 22.2 82 82 SE 9 15 29.96 1015 10 16 0.00 0.00
10:53 am 10:53 Sunny 83 28.3 69 20.6 63 63 SSW 10 17 29.98 1015 10 16 0.00 0.00
11:53 am 11:53 Sunny 85 29.4 69 20.6 59 59 Calm 30.01 1016 10 16 0.00 0.00
12:53 pm 12:53 Sunny 87 30.6 70 21.1 57 57 SSE 7 11 30.03 1017 10 16 0.00 0.00
1:53 pm 13:53 Sunny 89 31.7 71 21.7 55 55 ESE 8 13 30.02 1017 10 16 0.00 0.00
2:53 pm 14:53 Sunny 90 32.2 72 22.2 56 56 SE 9 15 30.03 1017 10 16 0.00 0.00
3:53 pm 15:53 Sunny 92 33.3 73 22.8 54 54 SSW 10 17 30.03 1017 10 16 0.00 0.00
4:53 pm 16:53 Mostly Sunny 90 32.2 72 22.2 56 56 ESE 8 13 30.03 1017 10 16 0.00 0.00
5:53 pm 17:53 Sunny 92 33.3 72 22.2 52 52 SE 10 17 30.02 1017 10 16 0.00 0.00
6:53 pm 18:53 Sunny 91 32.8 73 22.8 56 56 ESE 9 15 30.01 1016 10 16 0.00 0.00
7:53 pm 19:53 Sunny 87 30.6 72 22.2 61 61 E 7 11 30.03 1017 10 16 0.00 0.00
8:53 pm 20:53 Cloudy 85 29.4 74 23.3 70 70 ENE 9 15 30.06 1018 10 16 0.00 0.00
9:53 pm 21:53 Cloudy with Nearby Thunderstorms 75 23.9 69 20.6 82 82 ENE 24 39 30.13 1020 10 16 0.00 0.00
10:12 pm 22:12 Windy with Storms Likely 73 22.8 70 21.1 90 90 E 22 35 30.09 1019 10 16 0.00 0.03
10:51 pm 22:51 Cloudy with Thunderstorms 70 21 70 21 100 100 E 20 31 30.15 1021 3 4 0.06 1.52
10:53 pm 22:53 Cloudy with Thunderstorms 70 21.1 70 21.1 100 100 ESE 17 28 30.20 1023 3 5 0.06 1.52
11:24 pm 23:24 Partly Cloudy with Light Rain 70 21.1 70 21.1 100 100 ESE 15 24 30.18 1022 10 16 0.01 0.25
11:53 pm 23:53 Clear 70 21.1 70 21.1 100 100 ESE 12 19 30.19 1023 10 16 0.01 0.25

Powered by AerisWeather